Location: Bamazo
(6.7448°N, 10.8189°W)
Time: 03:34:24
(UTC+00:00)

Milstar 3 Cent rocket - Pass Details

Date: 18 September 2020
Orbit: 707 x 5145 km, 28.3° (Epoch: 23 October)

Event Time Altitude Azimuth Distance (km) Brightness Sun altitude
Rises 19:19:51 0° 261° (W) 5,900 8.5 -10.4°
Reaches altitude 10° 19:25:11 10° 271° (W) 4,130 7.3 -11.7°
Maximum altitude 19:33:12 29° 328° (NNW) 1,965 4.5 -13.7°
Drops below altitude 10° 19:38:09 10° 28° (NNE) 2,483 4.4 -15.0°
Enters shadow 19:39:34 - 37° (NE) 2,913 4.7 -15.3°
